Find Kosmos-2619

NORAD ID: 100460 Int'l Des: 2026-194 Owner: VVKOV/IACG Country: RU operational
Also known as: COSMOS 2619 spacetrack COSMOS 2619 [GLONASS-K1] celestrak

Historical Position — Sep 3, 2026

Loading 3D Globe...

About Kosmos-2619

Kosmos-2619 (NORAD 100460) is a satellite launched Aug 24, 2026 by VVKOV/IACG of RU. with a mass of 974.00 kg. Last tracked position: Sep 3, 2026.

Altitude History

Loading altitude history...

Two-Line Element Set

1 A0460U 26194A 26246.05024263 -.00000032 00000-0 00000-0 0 9990
2 A0460 64.7592 312.0581 0004655 49.6429 310.4698 2.12709114 221
Epoch: Sep 3, 2026 • Age: 470 hours

Current Status

Position data unavailable
Launch Date Aug 24, 2026
Age 29 days
Type other

Technical Details

Classification Payload
Mass 974.00 kg
Dry Mass 800.00 kg
Length 2.00 m
Shape ? Box + 2 Pan
Manufacturer RESH
Bus Type Ekspress-1000
Phase Status In Orbit
Owner/State VVKOV/IACG/RU

Most Searched